VK3CSJ Weather Reports


Display with metric or nautical units.
time (UTC)temp
F
wind
direction
speed
MPH
gust
MPH
rain 1hr
in
rain 24hr
in
rain mn
in
humidity
%
barometer
mb
20260510201547 43 114 0.0 0.0 0.00 0.00 0.00 96 1034.2
20260510200039 43 114 0.0 0.0 0.00 0.00 0.00 95 1034.1
20260510194528 42 114 0.0 0.0 0.00 0.00 0.00 95 1033.9
20260510193020 42 114 0.0 0.0 0.00 0.00 0.00 95 1033.7
20260510191512 41 114 0.0 0.0 0.00 0.00 0.00 95 1033.4
20260510190012 41 114 0.0 0.0 0.00 0.00 0.00 95 1033.4
20260510184556 40 114 0.0 0.0 0.00 0.00 0.00 95 1033.3
20260510183049 40 114 0.0 0.0 0.00 0.00 0.00 94 1033.2
20260510181540 41 114 0.0 0.0 0.00 0.00 0.00 94 1032.9
20260510180040 40 114 0.0 0.0 0.00 0.00 0.00 94 1033.0
20260510174524 41 114 0.0 0.0 0.00 0.00 0.00 94 1032.9
20260510173016 41 114 0.0 0.0 0.00 0.00 0.00 94 1032.9
20260510171515 41 114 0.0 0.0 0.00 0.00 0.00 94 1032.9
20260510170008 41 114 0.0 0.0 0.00 0.00 0.00 94 1033.0
20260510164558 41 114 0.0 0.0 0.00 0.00 0.00 94 1032.9
20260510163008 41 114 0.0 0.0 0.00 0.00 0.00 93 1033.1
20260510161609 41 114 0.0 0.0 0.00 0.00 0.00 93 1033.1
20260510160127 42 114 0.0 0.0 0.00 0.00 0.00 93 1033.0
20260510154538 42 114 0.0 0.0 0.00 0.00 0.00 93 1033.1
20260510153024 43 114 0.0 0.0 0.00 0.00 0.00 93 1033.1
20260510151516 43 114 0.0 0.0 0.00 0.00 0.00 93 1033.1
20260510150016 43 114 0.0 0.0 0.00 0.00 0.00 93 1033.1
20260510144506 43 114 0.0 0.0 0.00 0.00 0.00 93 1033.2
20260510143056 43 114 0.0 0.0 0.00 0.00 0.00 93 1033.0
20260510141538 44 114 0.0 0.0 0.00 0.00 0.00 92 1033.2
20260510140003 44 114 0.0 0.0 0.00 0.00 0.00 92 1033.1
20260510134552 45 114 0.0 0.0 0.00 0.00 0.00 92 1033.1
20260510133043 45 114 0.0 0.0 0.00 0.00 0.00 92 1033.1
20260510131552 45 114 0.0 0.0 0.00 0.00 0.00 92 1033.3
20260510130045 46 114 0.0 0.0 0.00 0.00 0.00 91 1033.4
20260510124535 46 114 0.0 0.0 0.00 0.00 0.00 91 1033.4
20260510123015 47 114 0.0 0.0 0.00 0.00 0.00 91 1033.4
20260510121509 47 114 0.0 0.0 0.00 0.00 0.00 91 1033.4
20260510120058 48 114 0.0 0.0 0.00 0.00 0.00 91 1033.5
20260510114553 48 114 0.0 0.0 0.00 0.00 0.00 90 1033.5
20260510113047 48 114 0.0 0.0 0.00 0.00 0.00 89 1033.4
20260510111531 49 114 0.0 0.0 0.00 0.00 0.00 89 1033.3
20260510110031 49 114 0.0 1.0 0.00 0.00 0.00 88 1033.2
20260510104511 50 114 0.0 0.0 0.00 0.00 0.00 88 1033.1
20260510103005 51 114 0.0 0.0 0.00 0.00 0.00 87 1033.2
20260510101555 51 114 0.0 1.0 0.00 0.00 0.00 86 1033.3
20260510100030 52 114 0.0 0.0 0.00 0.00 0.00 85 1033.2
20260510094521 53 114 0.0 0.0 0.00 0.00 0.00 85 1033.0
20260510093058 53 114 0.0 1.0 0.00 0.00 0.00 84 1033.0
20260510091528 54 114 0.0 0.0 0.00 0.00 0.00 81 1032.8
20260510090040 55 114 0.0 0.0 0.00 0.00 0.00 78 1032.6
20260510084524 56 114 0.0 0.0 0.00 0.00 0.00 78 1032.6
20260510083058 57 114 0.0 0.0 0.00 0.00 0.00 77 1032.5
20260510081505 58 114 0.0 0.0 0.00 0.00 0.00 76 1032.4
20260510080056 58 114 0.0 0.0 0.00 0.00 0.00 76 1032.2
20260510074528 58 114 0.0 0.0 0.00 0.00 0.00 76 1032.0
20260510073026 59 114 0.0 0.0 0.00 0.00 0.00 75 1032.0
20260510071522 59 114 0.0 1.0 0.00 0.00 0.00 72 1031.9
20260510070022 61 114 0.0 0.0 0.00 0.00 0.00 69 1031.8
20260510064520 62 113 0.0 3.0 0.00 0.00 0.00 67 1031.7
20260510063020 63 151 0.0 7.0 0.00 0.00 0.00 65 1031.6
20260510061516 64 124 1.0 5.0 0.00 0.00 0.00 64 1031.6
20260510060005 64 116 2.0 6.0 0.00 0.00 0.00 64 1031.5
20260510054504 63 182 0.0 3.0 0.00 0.00 0.00 65 1031.4
20260510053057 63 215 0.0 4.0 0.00 0.00 0.00 65 1031.4
20260510051556 64 182 3.0 8.0 0.00 0.00 0.00 63 1031.3
20260510050044 63 163 2.0 6.0 0.00 0.00 0.00 64 1031.3
20260510044551 63 178 1.0 5.0 0.00 0.00 0.00 63 1031.2
20260510043035 64 104 0.0 6.0 0.00 0.00 0.00 62 1031.2
20260510041518 63 140 1.0 4.0 0.00 0.00 0.00 64 1031.3
20260510040059 63 169 1.0 6.0 0.00 0.00 0.00 65 1031.5
20260510034544 62 183 0.0 3.0 0.00 0.00 0.00 66 1031.5
20260510033039 62 102 1.0 4.0 0.00 0.00 0.00 65 1031.6
20260510031536 62 118 0.0 4.0 0.00 0.00 0.00 65 1031.5
20260510030011 61 138 0.0 4.0 0.00 0.00 0.00 67 1031.7
20260510024556 61 263 0.0 3.0 0.00 0.00 0.00 68 1031.8
20260510023030 60 317 0.0 4.0 0.00 0.00 0.00 69 1032.1
20260510021516 60 309 0.0 6.0 0.00 0.00 0.00 70 1032.3
20260510020006 60 182 2.0 6.0 0.00 0.00 0.00 69 1032.5
20260510014554 60 27 0.0 3.0 0.00 0.00 0.00 70 1032.6
20260510013053 60 269 0.0 3.0 0.00 0.00 0.00 70 1032.8
20260510011555 59 57 0.0 1.0 0.00 0.00 0.00 72 1032.8
20260510010035 59 79 0.0 3.0 0.00 0.00 0.00 71 1032.8
20260510004515 58 184 0.0 4.0 0.00 0.00 0.00 74 1032.8
20260510003057 58 157 0.0 3.0 0.00 0.00 0.00 76 1032.8
20260510001541 57 192 1.0 5.0 0.00 0.00 0.00 80 1032.7
20260510000018 57 254 0.0 2.0 0.00 0.00 0.00 83 1032.7
20260509234503 56 206 1.0 7.0 0.00 0.00 0.00 91 1032.7
20260509233049 55 301 0.0 0.0 0.00 0.00 0.00 94 1032.6
20260509231542 55 300 0.0 1.0 0.00 0.00 0.00 94 1032.5
20260509230019 55 300 0.0 0.0 0.00 0.00 0.00 95 1032.6
20260509224501 54 300 0.0 1.0 0.00 0.00 0.00 95 1032.5
20260509223045 54 300 0.0 1.0 0.00 0.00 0.00 96 1032.3
20260509221537 54 300 0.0 0.0 0.00 0.00 0.00 95 1032.2
20260509220019 53 300 1.0 4.0 0.00 0.00 0.00 96 1032.0
20260509214504 53 336 1.0 3.0 0.00 0.00 0.00 95 1031.8
20260509213050 53 269 0.0 0.0 0.00 0.00 0.00 95 1031.6
20260509211548 53 269 0.0 0.0 0.00 0.00 0.00 95 1031.4
20260509210027 53 269 0.0 0.0 0.00 0.00 0.00 95 1031.3
20260509204519 53 269 0.0 0.0 0.00 0.00 0.00 95 1031.1
20260509203021 53 269 0.0 0.0 0.00 0.00 0.00 95 1031.0